sat.trackr.live / text

‹ back to catalog

STARLINK-32892

NORAD 62893 · 2025-024Q

PAYLOAD ACTIVE UNKNOWN

§ Identity

Operator
Country
US
Launch date
2025-02-04
Launch site
AFETR
Launch vehicle
Mass (kg)
RCS (m²)

Purposes: comms

External: N2YO · Heavens-Above · Gunter

§ Orbital elements

Epoch: 2026-09-21T09:21:31.468320Z

Period
94.27 min
Inclination
43.0014°
Eccentricity
0.0001863
Mean motion
15.27582777 rev/d
Perigee alt
481.8 km
Apogee alt
484.3 km
Semi-major
6,861.2 km
B*
4.1767e-4
RAAN
300.3329°
Arg perigee
273.6447°
Mean anomaly
86.4192°
Rev number
9,219

§ Raw data

STARLINK-328921 62893U 25024Q   26264.38994755  .00011250  00000+0  41767-3 0  99972 62893  43.0014 300.3329 0001863 273.6447  86.4192 15.27582777 92195

JSON: /api/v1/satellites/62893 · /tle

For live sub-satellite position, see the globe view (requires WebGL).

§ Visibility from observer

Set your observer location to see the next 7 days of passes ≥ 10°. The values pass through the URL so the page stays shareable.

No JS? Fill the form by hand. The geolocation button needs JavaScript.